Showing default

COSMOS 1695, 16143

Orbit data source: Space-Track

COSMOS 1695, 16143 is a payload satellite owned by GUKOS (CIS) in LEO that was launched on Wed, 09 Oct 1985 UTC via a TSIKLON-3 launch vehicle from the Plesetsk Missile And Space Complex (PKMTR). Payload-class satellites include a variety of spacecraft equipped with specific instruments for various scientific and technological missions. These include communications satellites like Starlink; space stations such as the ISS; scientific satellites like the Hubble; Earth observation satellites from companies like Planet Labs, Umbra, and HawkEye 360; GPS; miniature CubeSats for education and research; and military/defense satellites.

Loading next visibility...
Identifier
16143, 1985-094F
Orbit
LEO
Last TLE update
14 hours ago
Origin
Manufacturer
NPO PM
Mission
Defense Communications
Bus & Motor
STRELA-3, Unknown motor
Mass
225 kg wet, 225 kg dry
Launch date (UTC)
1985-10-09 (40 years ago)
Launch vehicle
TSIKLON-3
Launch site
Plesetsk Missile And Space Complex (PKMTR)
Object type
Payload
Rocket body
Debris
Shape & HBR
Cyl, 1.6 m
Radar Cross Section
1.257 m², Medium (>0.1 m² and < 1m²)

Expand to show TLE details & history

TLE from 14 hours ago
0 COSMOS 1695
1 16143U 85094F   25185.83324977  .00000009  00000-0 -93751-5 0  9995
2 16143  82.6035 129.4960 0007036 180.8946 209.5719 12.62894622831652
Epoch: 2025-07-04T19:59Z
TLE epoch observation values (Epoch: 2025-07-04T19:59:52.78Z)
Latitude
30.19473°
Longitude
-89.24316°
Altitude
1,419.445 km
Speed
7.151 km/s
True Right ascension
08h 55m 13s
True Declination
30° 03' 29"
Sunlit
Object was in daylight at epoch
Visualization orbit readout
Latitude
78.95944°
Longitude
44.62773°
Altitude
1,423.456 km
Speed
7.156 km/s
Apparent Right ascension
10h 42m 00s
Apparent Declination
40° 02' 13"
Sunlit
Object is in daylight
Visualization observer readout
Local Sidereal Time
21:34:03
Azimuth
346.926° N
Elevation
-8.559°
Doppler factor
1
Orbital elements
Apogee altitude
1,413.817 km
Perigee altitude
1,402.86 km
Semi-major axis
7,786.475 km
Eccentricity
0.0007
Inclination
82.6035°
RAAN
129.496°
Arg. of periapsis
180.8946°
True anomaly
Unknown
Mean anomaly
209.5719°
Eccentric anomaly
Unknown
Mean motion
3.15887 °/min
Orbital period
113.96 mins
BSTAR
-0.0000093751
Loading maneuver chart data...
Loading SW <> Apogee altitude chart data...
Loading historical data...
Loading historical data...
Loading historical data...
Loading historical data...
Loading historical data...
Loading historical data...
Loading historical data...

COSMOS 1695 Visibility forecast

Observer location: undefined°, undefined°

Span
Click to sort rows by Start time (UTC) header in descending order
Start Az.
Max El. time (UTC)
Max El. Az.
Max El.
End time (UTC)
End Az.
11 mins2025-07-05 09:46:57.596Z325.845° NNW2025-07-05 09:52:57.596Z278.831° WNW21.009°2025-07-05 09:57:57.596Z237.5° WSW
15 mins2025-07-05 20:38:57.596Z173.71° S2025-07-05 20:45:57.596Z94.093° ESE43.446°2025-07-05 20:53:57.596Z12.155° NNE
11 mins2025-07-05 22:36:57.596Z252.068° W2025-07-05 22:41:57.596Z295.961° NW21.754°2025-07-05 22:47:57.596Z343.08° N
12 mins2025-07-06 06:40:57.596Z18.178° NNE2025-07-06 06:46:57.596Z71.866° E25.211°2025-07-06 06:52:57.596Z122.661° SE
14 mins2025-07-06 08:35:57.596Z341.536° N2025-07-06 08:41:57.596Z274.83° WNW40.778°2025-07-06 08:49:57.596Z192.421° SSW
|